Location: Hains Lake
(37.8540°N, 99.8578°W)
Time: 07:19:24
(UTC+00:00)

Vanguard 1 - Pass Details

Date: 27 April 2021
Orbit: 649 x 3834 km, 34.2° (Epoch: 04 May)

Event Time Altitude Azimuth Distance (km) Brightness Sun altitude
Rises 01:22:40 0° 285° (WNW) 6,972 18.1 -0.2°
Reaches altitude 10° 01:27:17 10° 279° (W) 6,277 16.1 -1.1°
Maximum altitude 01:46:22 41° 218° (SW) 4,805 13.7 -4.6°
Drops below altitude 10° 02:06:04 10° 156° (SSE) 6,387 13.8 -8.2°
Sets 02:10:56 0° 150° (SSE) 7,090 13.9 -9.1°
